DW2213 Weather Reports


time (UTC)temp
C
wind
direction
speed
KPH
gust
KPH
rain 1hr
cm
rain 24hr
cm
rain mn
cm
humidity
%
barometer
mb
20260831174804 27 134 1.6 8.0 0.00 0.00 0.00 77 1012.2
20260831174304 27 133 1.6 8.0 0.00 0.00 0.00 76 1012.2
20260831172803 28 135 1.6 8.0 0.00 0.00 0.00 75 1012.0
20260831172306 28 117 0.0 8.0 0.00 0.00 0.00 74 1012.0
20260831171304 28 145 1.6 8.0 0.00 0.00 0.00 74 1011.9
20260831170305 28 130 1.6 8.0 0.00 0.00 0.00 72 1011.9
20260831165805 28 137 1.6 11.3 0.00 0.00 0.00 71 1011.9
20260831164805 29 147 3.2 8.0 0.00 0.00 0.00 69 1012.0
20260831164305 30 128 3.2 9.7 0.00 0.00 0.00 69 1012.0
20260831163805 30 138 3.2 9.7 0.00 0.00 0.00 68 1012.0
20260831162306 30 113 3.2 9.7 0.00 0.00 0.00 64 1012.2
20260831161305 31 132 1.6 8.0 0.00 0.00 0.00 56 1012.2
20260831160805 31 129 1.6 8.0 0.00 0.00 0.00 56 1012.2
20260831160305 31 151 3.2 8.0 0.00 0.00 0.00 54 1012.3
20260831155805 31 115 1.6 4.8 0.00 0.00 0.00 54 1012.3
20260831154805 31 144 3.2 8.0 0.00 0.00 0.00 55 1012.4
20260831154305 31 118 1.6 8.0 0.00 0.00 0.00 55 1012.5
20260831153805 31 142 3.2 12.9 0.00 0.00 0.00 56 1012.4
20260831152804 31 152 3.2 9.7 0.00 0.00 0.00 58 1012.5
20260831152306 31 145 3.2 8.0 0.00 0.00 0.00 59 1012.5
20260831151804 31 127 1.6 8.0 0.00 0.00 0.00 61 1012.5
20260831151305 31 144 1.6 4.8 0.00 0.00 0.00 63 1012.5
20260831150805 31 151 1.6 9.7 0.00 0.00 0.00 66 1012.6
20260831150305 30 153 0.0 8.0 0.00 0.00 0.00 67 1012.6
20260831145805 31 144 0.0 4.8 0.00 0.00 0.00 67 1012.5
20260831145306 31 127 1.6 8.0 0.00 0.00 0.00 67 1012.5
20260831144805 31 150 3.2 9.7 0.00 0.00 0.00 67 1012.6
20260831144304 31 165 3.2 8.0 0.00 0.00 0.00 67 1012.6
20260831143805 31 141 4.8 9.7 0.00 0.00 0.00 67 1012.6
20260831143305 31 140 3.2 9.7 0.00 0.00 0.00 67 1012.7
20260831142805 31 132 3.2 8.0 0.00 0.00 0.00 67 1012.7
20260831142306 31 133 3.2 8.0 0.00 0.00 0.00 67 1012.6
20260831141805 31 160 3.2 12.9 0.00 0.00 0.00 67 1012.6
20260831141305 30 186 3.2 9.7 0.00 0.00 0.00 69 1012.6
20260831140804 30 142 1.6 8.0 0.00 0.00 0.00 68 1012.7
20260831135805 31 147 0.0 11.3 0.00 0.00 0.00 67 1012.8
20260831135306 30 158 1.6 8.0 0.00 0.00 0.00 70 1012.7
20260831134805 30 119 1.6 8.0 0.00 0.00 0.00 69 1012.8
20260831134305 30 13 3.2 8.0 0.00 0.00 0.00 67 1012.8
20260831133805 31 74 1.6 4.8 0.00 0.00 0.00 65 1012.9
20260831133305 31 46 1.6 4.8 0.00 0.00 0.00 65 1012.9
20260831132805 31 342 1.6 4.8 0.00 0.00 0.00 66 1012.9
20260831132307 30 7 3.2 4.8 0.00 0.00 0.00 66 1012.8
20260831131805 31 1 3.2 9.7 0.00 0.00 0.00 65 1012.9
20260831131305 31 331 1.6 4.8 0.00 0.00 0.00 66 1012.9
20260831130805 31 88 1.6 8.0 0.00 0.00 0.00 66 1012.9
20260831130304 31 50 1.6 8.0 0.00 0.00 0.00 65 1012.9
20260831125805 30 50 0.0 4.8 0.00 0.00 0.00 67 1013.0
20260831125306 30 60 3.2 9.7 0.00 0.00 0.00 67 1013.1
20260831124804 30 53 3.2 9.7 0.00 0.00 0.00 66 1013.1
20260831124304 31 326 1.6 4.8 0.00 0.00 0.00 66 1013.2
20260831123304 31 24 1.6 4.8 0.00 0.00 0.00 65 1013.3
20260831122805 31 355 1.6 8.0 0.00 0.00 0.00 65 1013.3
20260831122306 31 98 1.6 8.0 0.00 0.00 0.00 67 1013.4
20260831121804 30 106 1.6 4.8 0.00 0.00 0.00 65 1013.4
20260831121304 30 56 0.0 4.8 0.00 0.00 0.00 65 1013.5
20260831120304 30 22 1.6 4.8 0.00 0.00 0.00 66 1013.4
20260831115805 31 264 1.6 4.8 0.00 0.00 0.00 65 1013.5
20260831115306 30 38 0.0 4.8 0.00 0.00 0.00 67 1013.6
20260831114805 30 46 1.6 4.8 0.00 0.00 0.00 67 1013.6
20260831114304 30 26 1.6 8.0 0.00 0.00 0.00 66 1013.6
20260831113804 30 356 0.0 4.8 0.00 0.00 0.00 65 1013.5
20260831113305 30 354 1.6 8.0 0.00 0.00 0.00 66 1013.6
20260831112805 30 41 1.6 9.7 0.00 0.00 0.00 67 1013.7
20260831112307 30 47 1.6 4.8 0.00 0.00 0.00 67 1013.7
20260831111805 30 0 3.2 8.0 0.00 0.00 0.00 66 1013.7
20260831111305 30 13 1.6 4.8 0.00 0.00 0.00 67 1013.8
20260831110805 30 330 1.6 8.0 0.00 0.00 0.00 67 1013.8
20260831110305 30 323 1.6 4.8 0.00 0.00 0.00 67 1013.9
20260831105306 30 346 0.0 4.8 0.00 0.00 0.00 67 1014.1
20260831103804 30 59 1.6 8.0 0.00 0.00 0.00 68 1014.1
20260831103304 30 48 0.0 3.2 0.00 0.00 0.00 69 1014.1
20260831102804 28 74 1.6 8.0 0.00 0.00 0.00 71 1014.1
20260831102306 28 1 1.6 9.7 0.00 0.00 0.00 71 1014.1
20260831101805 29 37 1.6 4.8 0.00 0.00 0.00 69 1014.1
20260831101304 29 29 1.6 4.8 0.00 0.00 0.00 70 1014.0
20260831100805 28 0 1.6 8.0 0.00 0.00 0.00 72 1014.1
20260831095306 28 38 1.6 8.0 0.00 0.00 0.00 72 1014.1
20260831094805 28 93 0.0 3.2 0.00 0.00 0.00 72 1014.1
20260831093304 28 96 1.6 4.8 0.00 0.00 0.00 71 1014.0
20260831092805 28 48 1.6 4.8 0.00 0.00 0.00 71 1014.0
20260831092306 28 37 1.6 4.8 0.00 0.00 0.00 71 1014.0
20260831091805 28 345 0.0 4.8 0.00 0.00 0.00 71 1013.9
20260831091304 28 320 0.0 1.6 0.00 0.00 0.00 72 1013.9
20260831090805 28 318 0.0 0.0 0.00 0.00 0.00 72 1013.8
20260831090305 27 309 0.0 0.0 0.00 0.00 0.00 73 1013.8
20260831085805 27 294 0.0 0.0 0.00 0.00 0.00 72 1013.7
20260831085306 27 294 0.0 0.0 0.00 0.00 0.00 73 1013.7
20260831084805 27 294 0.0 0.0 0.00 0.00 0.00 72 1013.6
20260831084305 27 295 0.0 0.0 0.00 0.00 0.00 73 1013.5
20260831083805 27 295 0.0 0.0 0.00 0.00 0.00 73 1013.4
20260831083305 26 294 0.0 0.0 0.00 0.00 0.00 74 1013.3
20260831082805 27 294 0.0 0.0 0.00 0.00 0.00 73 1013.3
20260831082306 26 297 0.0 0.0 0.00 0.00 0.00 74 1013.2
20260831081805 26 319 0.0 0.0 0.00 0.00 0.00 76 1013.2
20260831081305 26 313 0.0 0.0 0.00 0.00 0.00 76 1013.1
20260831080804 26 314 0.0 0.0 0.00 0.00 0.00 76 1013.1
20260831080305 26 314 0.0 0.0 0.00 0.00 0.00 77 1013.0
20260831075804 25 223 0.0 0.0 0.00 0.00 0.00 77 1012.9
20260831074304 25 223 0.0 0.0 0.00 0.00 0.00 79 1012.9
20260831073805 25 223 0.0 0.0 0.00 0.00 0.00 79 1012.9
20260831072804 25 223 0.0 0.0 0.00 0.00 0.00 80 1012.9
20260831072306 25 223 0.0 0.0 0.00 0.00 0.00 82 1012.9
20260831071805 24 223 0.0 0.0 0.00 0.00 0.00 82 1012.8
20260831070805 24 223 0.0 0.0 0.00 0.00 0.00 83 1012.7
20260831070304 23 223 0.0 0.0 0.00 0.00 0.00 83 1012.7
20260831065804 23 223 0.0 0.0 0.00 0.00 0.00 84 1012.7
20260831065306 23 223 0.0 0.0 0.00 0.00 0.00 85 1012.7
20260831064304 23 222 0.0 0.0 0.00 0.00 0.00 86 1012.5
20260831063804 23 222 0.0 0.0 0.00 0.00 0.00 86 1012.4
20260831063305 23 222 0.0 0.0 0.00 0.00 0.00 86 1012.4
20260831062306 22 222 0.0 0.0 0.00 0.00 0.00 87 1012.1
20260831061304 22 222 0.0 0.0 0.00 0.00 0.00 88 1012.0
20260831060305 22 222 0.0 0.0 0.00 0.00 0.00 88 1011.9
20260831055804 22 222 0.0 0.0 0.00 0.00 0.00 88 1011.8
20260831055306 22 222 0.0 0.0 0.00 0.00 0.00 88 1011.8
20260831054305 22 222 0.0 0.0 0.00 0.00 0.00 88 1011.7
20260831053805 22 222 0.0 0.0 0.00 0.00 0.00 88 1011.7
20260831053305 22 222 0.0 0.0 0.00 0.00 0.00 88 1011.7
20260831052804 22 222 0.0 0.0 0.00 0.00 0.00 88 1011.6
20260831052307 22 222 0.0 0.0 0.00 0.00 0.00 88 1011.6
20260831051805 22 222 0.0 0.0 0.00 0.00 0.00 88 1011.6
20260831051304 22 222 0.0 0.0 0.00 0.00 0.00 88 1011.6
20260831050805 22 222 0.0 0.0 0.00 0.00 0.00 88 1011.5
20260831050304 22 222 0.0 0.0 0.00 0.00 0.00 89 1011.5
20260831045804 22 222 0.0 0.0 0.00 0.00 0.00 88 1011.5
20260831045306 22 222 0.0 0.0 0.00 0.00 0.00 88 1011.5
20260831044804 22 222 0.0 0.0 0.00 0.00 0.00 88 1011.4
20260831043805 23 222 0.0 0.0 0.00 0.00 0.00 88 1011.4
20260831043305 23 222 0.0 0.0 0.00 0.00 0.00 89 1011.3
20260831041805 23 221 0.0 0.0 0.00 0.00 0.00 89 1011.3
20260831040805 23 221 0.0 0.0 0.00 0.00 0.00 88 1011.4
20260831040305 23 221 0.0 0.0 0.00 0.00 0.00 88 1011.4
20260831035804 23 221 0.0 0.0 0.00 0.00 0.00 88 1011.4
20260831035306 23 221 0.0 0.0 0.00 0.00 0.00 88 1011.4
20260831034804 23 221 0.0 0.0 0.00 0.00 0.00 88 1011.4
20260831034305 23 221 0.0 0.0 0.00 0.00 0.00 88 1011.3
20260831033805 23 221 0.0 0.0 0.00 0.00 0.00 88 1011.3
20260831033304 23 221 0.0 0.0 0.00 0.00 0.00 88 1011.4
20260831032804 23 221 0.0 0.0 0.00 0.00 0.00 88 1011.4
20260831032306 23 221 0.0 0.0 0.00 0.00 0.00 88 1011.4
20260831031804 23 221 0.0 0.0 0.00 0.00 0.00 88 1011.4
20260831030804 23 221 0.0 0.0 0.00 0.00 0.00 87 1011.4
20260831025804 23 221 0.0 0.0 0.00 0.00 0.00 87 1011.4
20260831025306 23 221 0.0 0.0 0.00 0.00 0.00 87 1011.4
20260831024304 23 221 0.0 0.0 0.00 0.00 0.00 87 1011.4
20260831023805 23 221 0.0 0.0 0.00 0.00 0.00 87 1011.4
20260831023305 23 221 0.0 0.0 0.00 0.00 0.00 87 1011.5
20260831022804 23 221 0.0 0.0 0.00 0.00 0.00 87 1011.5
20260831022306 23 221 0.0 0.0 0.00 0.00 0.00 87 1011.5
20260831021805 23 221 0.0 0.0 0.00 0.00 0.00 87 1011.4
20260831021305 24 221 0.0 0.0 0.00 0.00 0.00 87 1011.5
20260831020804 24 221 0.0 0.0 0.00 0.00 0.00 87 1011.5
20260831020304 24 221 0.0 0.0 0.00 0.00 0.00 87 1011.5
20260831015805 24 221 0.0 0.0 0.00 0.00 0.00 87 1011.5
20260831015306 24 221 0.0 0.0 0.00 0.00 0.00 87 1011.5
20260831014804 24 221 0.0 0.0 0.00 0.00 0.00 87 1011.5
20260831014304 24 221 0.0 0.0 0.00 0.00 0.00 87 1011.5
20260831013804 24 221 0.0 0.0 0.00 0.00 0.00 87 1011.5
20260831012804 24 221 0.0 0.0 0.00 0.00 0.00 87 1011.6
20260831012306 24 221 0.0 0.0 0.00 0.00 0.00 88 1011.6
20260831011804 24 221 0.0 0.0 0.00 0.00 0.00 87 1011.6
20260831011304 23 221 0.0 4.8 0.00 0.00 0.00 87 1011.6
20260831010804 23 228 1.6 4.8 0.00 0.00 0.00 87 1011.6
20260831010304 23 228 0.0 4.8 0.00 0.00 0.00 87 1011.6
20260831005804 23 262 1.6 4.8 0.00 0.00 0.00 87 1011.5
20260831005306 23 282 0.0 0.0 0.00 0.00 0.00 87 1011.4
20260831004804 24 283 0.0 0.0 0.00 0.00 0.00 87 1011.4
20260831004304 24 282 0.0 0.0 0.00 0.00 0.00 87 1011.4
20260831002804 24 284 0.0 0.0 0.00 0.00 0.00 88 1011.5
20260831002306 24 284 0.0 0.0 0.00 0.00 0.00 88 1011.6
20260831001804 24 284 0.0 0.0 0.00 0.00 0.00 87 1011.6
20260831001304 24 284 0.0 0.0 0.00 0.00 0.00 87 1011.6
20260831000304 24 284 0.0 0.0 0.00 0.00 0.00 87 1011.7
20260830235804 24 284 0.0 0.0 0.00 0.00 0.00 88 1011.7
20260830235306 24 284 0.0 0.0 0.00 0.00 0.00 87 1011.6
20260830234804 24 283 0.0 0.0 0.00 0.00 0.00 87 1011.6
20260830234304 24 283 0.0 0.0 0.00 0.00 0.00 87 1011.6
20260830233804 24 283 0.0 0.0 0.00 0.00 0.00 87 1011.7
20260830233304 24 283 0.0 0.0 0.00 0.00 0.00 87 1011.7
20260830232804 24 284 0.0 0.0 0.00 0.00 0.00 87 1011.7
20260830232306 24 284 0.0 0.0 0.00 0.00 0.00 87 1011.7
20260830230804 24 284 0.0 0.0 0.00 0.00 0.00 87 1011.7
20260830230303 24 284 0.0 3.2 0.00 0.00 0.00 87 1011.6
20260830225305 24 285 0.0 0.0 0.00 0.00 0.00 87 1011.6
20260830224804 24 284 0.0 0.0 0.00 0.00 0.00 87 1011.5
20260830224304 24 284 0.0 0.0 0.00 0.00 0.00 86 1011.5
20260830223804 24 285 0.0 0.0 0.00 0.00 0.00 86 1011.5
20260830222804 24 285 0.0 0.0 0.00 0.00 0.00 86 1011.6
20260830222306 25 284 0.0 0.0 0.00 0.00 0.00 86 1011.6
20260830221804 25 285 0.0 0.0 0.00 0.00 0.00 86 1011.6
20260830221304 25 285 0.0 0.0 0.00 0.00 0.00 86 1011.6
20260830220820 25 285 0.0 0.0 0.00 0.00 0.00 86 1011.5
20260830215804 25 285 0.0 1.6 0.00 0.00 0.00 86 1011.4
20260830215305 25 287 0.0 1.6 0.00 0.00 0.00 85 1011.4
20260830214804 25 286 0.0 0.0 0.00 0.00 0.00 85 1011.4
20260830214304 25 288 0.0 0.0 0.00 0.00 0.00 85 1011.4
20260830213803 25 286 0.0 0.0 0.00 0.00 0.00 85 1011.4
20260830213304 25 286 0.0 0.0 0.00 0.00 0.00 85 1011.4
20260830212804 25 286 0.0 0.0 0.00 0.00 0.00 85 1011.3
20260830212306 25 284 0.0 0.0 0.00 0.00 0.00 85 1011.2
20260830211804 25 291 0.0 0.0 0.00 0.00 0.00 85 1011.1
20260830211304 25 290 0.0 0.0 0.00 0.00 0.00 85 1011.1
20260830210804 25 290 0.0 0.0 0.00 0.00 0.00 84 1011.0
20260830210303 25 290 0.0 0.0 0.00 0.00 0.00 84 1011.0
20260830205804 25 290 0.0 0.0 0.00 0.00 0.00 84 1010.9
20260830205305 25 288 0.0 0.0 0.00 0.00 0.00 84 1010.8
20260830204804 25 308 0.0 3.2 0.00 0.00 0.00 84 1010.8
20260830204303 25 270 0.0 3.2 0.00 0.00 0.00 84 1010.7
20260830203304 25 270 0.0 3.2 0.00 0.00 0.00 84 1010.6
20260830202804 25 265 1.6 4.8 0.00 0.00 0.00 83 1010.5
20260830202305 25 259 0.0 4.8 0.00 0.00 0.00 83 1010.5
20260830201803 26 284 1.6 4.8 0.00 0.00 0.00 83 1010.4
20260830201304 26 292 0.0 3.2 0.00 0.00 0.00 82 1010.4
20260830200804 26 281 0.0 4.8 0.00 0.00 0.00 82 1010.4
20260830195803 26 205 0.0 0.0 0.00 0.00 0.00 82 1010.2
20260830195305 26 205 0.0 0.0 0.00 0.00 0.00 82 1010.1
20260830194804 26 205 0.0 0.0 0.00 0.00 0.00 81 1010.0
20260830194304 26 205 0.0 0.0 0.00 0.00 0.00 81 1009.9
20260830193803 26 201 0.0 0.0 0.00 0.00 0.00 80 1009.8
20260830193304 26 184 0.0 0.0 0.00 0.00 0.00 79 1009.7
20260830192803 26 184 0.0 0.0 0.00 0.00 0.00 79 1009.6
20260830192305 26 184 0.0 0.0 0.00 0.00 0.00 78 1009.5
20260830191804 26 184 0.0 0.0 0.00 0.00 0.00 77 1009.4
20260830191304 26 184 0.0 0.0 0.00 0.00 0.00 77 1009.3
20260830190803 27 184 0.0 3.2 0.00 0.00 0.00 75 1009.3
20260830190304 27 184 0.0 3.2 0.00 0.00 0.00 74 1009.3
20260830185306 28 156 1.6 4.8 0.00 0.00 0.00 70 1009.2
20260830184804 28 153 0.0 0.0 0.00 0.00 0.00 68 1009.2
20260830184304 28 153 0.0 0.0 0.00 0.00 0.00 65 1009.1
20260830183804 29 153 0.0 0.0 0.00 0.00 0.00 61 1009.1
20260830183304 29 153 0.0 0.0 0.00 0.00 0.00 60 1009.1
20260830182306 30 153 0.0 1.6 0.00 0.00 0.00 55 1009.0
20260830181804 30 153 0.0 3.2 0.00 0.00 0.00 55 1008.9
20260830180804 30 139 0.0 0.0 0.00 0.00 0.00 54 1008.9
20260830180304 30 139 0.0 0.0 0.00 0.00 0.00 54 1008.9